This demonstration page uses our WeatherBlox Daily Observations layout. Learn more.

Left ArrowRight Arrow

Hourly Observations for February 14, 2016

Temp ( °F °C ) Dew Point ( °F °C ) Humidity (%) Winds ( mph kmh ) Pressure ( in mb ) Visibility ( mi km ) Precip ( " mm )
12:54 am 00:54 Mostly Clear 19 -7.2 6 -14.4 57 57 SSE 13 20 30.16 1021 10 16 0.00 0.00
1:54 am 01:54 Cloudy 19 -7.2 7 -13.9 59 59 SSE 14 22 30.13 1020 10 16 0.00 0.00
2:54 am 02:54 Cloudy 20 -6.7 8 -13.3 60 60 S 14 22 30.10 1019 10 16 0.00 0.00
3:54 am 03:54 Cloudy 20 -6.7 9 -12.8 62 62 S 15 24 30.04 1017 10 16 0.00 0.00
4:54 am 04:54 Cloudy 21 -6.1 9 -12.8 59 59 S 15 24 30.00 1016 10 16 0.00 0.00
5:49 am 05:49 Cloudy 21 -6 10 -12 63 63 S 15 24 30.03 1017 10 16 0.00 0.00
5:54 am 05:54 Cloudy 21 -6.1 10 -12.2 62 62 S 14 22 29.98 1015 10 16 0.00 0.00
6:54 am 06:54 Cloudy 22 -5.6 11 -11.7 63 63 S 10 17 29.97 1015 10 16 0.00 0.00
7:54 am 07:54 Cloudy 22 -5.6 12 -11.1 66 66 SSW 12 19 29.96 1015 10 16 0.00 0.00
8:10 am 08:10 Cloudy 22 -5.6 12 -11.1 66 66 S 9 15 30.00 1016 10 16 0.00 0.00
8:24 am 08:24 Cloudy 23 -5 12 -11 63 63 SSW 12 19 30.00 1016 10 16 0.00 0.00
8:54 am 08:54 Cloudy 24 -4.4 15 -9.4 68 68 SSW 10 17 29.94 1014 10 16 0.00 0.00
9:54 am 09:54 Cloudy 27 -2.8 20 -6.7 75 75 S 5 7 29.92 1013 10 16 0.00 0.03
10:12 am 10:12 Cloudy 28 -2.2 21 -6.1 75 75 S 6 9 29.94 1014 10 16 0.00 0.00
10:30 am 10:30 Cloudy 28 -2 21 -6 74 74 S 6 9 29.94 1014 10 16 0.00 0.00
10:54 am 10:54 Cloudy 31 -0.6 24 -4.4 76 76 SSE 3 6 29.91 1013 10 16 0.00 0.00
11:24 am 11:24 Mostly Cloudy 34 1 27 -3 75 75 SSE 6 9 29.91 1013 10 16 0.00 0.00
11:54 am 11:54 Mostly Sunny 37 2.8 28 -2.2 70 70 SSW 5 7 29.89 1012 10 16 0.00 0.00
12:27 pm 12:27 Mostly Cloudy 40 4.4 30 -1.1 68 68 VRB 3 6 29.88 1012 10 16 0.00 0.00
12:54 pm 12:54 Cloudy 41 5 30 -1.1 65 65 NE 3 6 29.89 1012 10 16 0.00 0.00
1:54 pm 13:54 Cloudy 40 4.4 31 -0.6 70 70 N 6 9 29.89 1012 10 16 0.00 0.00
2:45 pm 14:45 Mostly Cloudy 41 5 33 0.6 73 73 N 6 9 29.88 1012 10 16 0.00 0.00
2:54 pm 14:54 Partly Cloudy 41 5 32 0 70 70 N 7 11 29.88 1012 10 16 0.00 0.00
3:54 pm 15:54 Sunny 42 5.6 33 0.6 71 71 N 3 6 29.90 1013 10 16 0.00 0.00
4:54 pm 16:54 Sunny 40 4.4 33 0.6 77 77 Calm 29.90 1013 10 16 0.00 0.00
5:54 pm 17:54 Sunny 39 3.9 32 0 76 76 Calm 29.91 1013 10 16 0.00 0.00
6:54 pm 18:54 Clear 35 1.7 30 -1.1 82 82 Calm 29.91 1013 10 16 0.00 0.00
7:54 pm 19:54 Partly Cloudy 33 0.6 30 -1.1 89 89 SSE 3 6 29.93 1014 10 16 0.00 0.00
8:54 pm 20:54 Cloudy 32 0 29 -1.7 88 88 Calm 29.92 1013 10 16 0.00 0.00
9:54 pm 21:54 Cloudy 33 0.6 30 -1.1 89 89 Calm 29.92 1013 10 16 0.00 0.00
10:54 pm 22:54 Cloudy 34 1.1 31 -0.6 89 89 Calm 29.91 1013 10 16 0.00 0.00
11:54 pm 23:54 Cloudy with Light Rain 35 1.7 30 -1.1 82 82 ESE 5 7 29.91 1013 10 16 0.00 0.03

Powered by AerisWeather